| time (UTC) | temp F | wind direction | speed knots | gust knots | rain 1hr in | rain 24hr in | rain mn in | humidity % | barometer mb |
| 20260506180025 | 75 | 338 | 0.0 | 1.7 | 0.00 | 0.00 | 0.00 | 70 | 1007.3 |
| 20260506175515 | 76 | 338 | 0.0 | 1.7 | 0.00 | 0.00 | 0.00 | 69 | 1007.7 |
| 20260506175004 | 75 | 338 | 0.0 | 3.5 | 0.00 | 0.00 | 0.00 | 69 | 1007.5 |
| 20260506174454 | 76 | 315 | 0.0 | 3.5 | 0.00 | 0.00 | 0.00 | 71 | 1007.8 |
| 20260506173943 | 75 | 315 | 2.6 | 7.0 | 0.00 | 0.00 | 0.00 | 71 | 1007.8 |
| 20260506173443 | 74 | 338 | 0.0 | 7.0 | 0.00 | 0.00 | 0.00 | 70 | 1007.9 |
| 20260506172924 | 74 | 315 | 3.5 | 6.1 | 0.00 | 0.00 | 0.00 | 70 | 1008.0 |
| 20260506171353 | 73 | 0 | 0.0 | 7.0 | 0.00 | 0.00 | 0.00 | 71 | 1008.2 |
| 20260506170333 | 73 | 293 | 3.5 | 6.1 | 0.00 | 0.00 | 0.00 | 73 | 1008.3 |
| 20260506165823 | 72 | 293 | 3.5 | 6.1 | 0.00 | 0.00 | 0.00 | 73 | 1008.6 |
| 20260506164803 | 72 | 270 | 0.0 | 3.5 | 0.00 | 0.00 | 0.00 | 72 | 1008.7 |
| 20260506164253 | 72 | 293 | 0.0 | 1.7 | 0.00 | 0.00 | 0.00 | 73 | 1008.7 |
| 20260506163743 | 73 | 338 | 0.9 | 3.5 | 0.00 | 0.00 | 0.00 | 72 | 1008.8 |
| 20260506163232 | 73 | 315 | 0.0 | 3.5 | 0.00 | 0.00 | 0.00 | 72 | 1009.1 |
| 20260506162722 | 74 | 293 | 0.0 | 0.0 | 0.00 | 0.00 | 0.00 | 72 | 1009.0 |
| 20260506162212 | 73 | 293 | 0.0 | 0.0 | 0.00 | 0.00 | 0.00 | 70 | 1009.0 |
| 20260506161703 | 72 | 0 | 0.0 | 1.7 | 0.00 | 0.00 | 0.00 | 72 | 1009.2 |
| 20260506160652 | 72 | 315 | 1.7 | 6.1 | 0.00 | 0.00 | 0.00 | 77 | 1009.5 |
| 20260506160132 | 70 | 0 | 0.9 | 6.1 | 0.00 | 0.00 | 0.00 | 77 | 1009.5 |
| 20260506155622 | 69 | 293 | 1.7 | 5.2 | 0.00 | 0.00 | 0.00 | 78 | 1009.6 |
| 20260506155111 | 69 | 315 | 2.6 | 6.1 | 0.00 | 0.00 | 0.00 | 80 | 1010.0 |
| 20260506154051 | 68 | 338 | 2.6 | 9.6 | 0.00 | 0.00 | 0.00 | 81 | 1010.1 |
| 20260506153541 | 67 | 315 | 1.7 | 5.2 | 0.00 | 0.00 | 0.00 | 82 | 1010.2 |
| 20260506153031 | 68 | 315 | 2.6 | 5.2 | 0.00 | 0.00 | 0.00 | 84 | 1010.5 |
| 20260506152521 | 67 | 315 | 2.6 | 7.0 | 0.00 | 0.00 | 0.00 | 85 | 1010.5 |
| 20260506152010 | 66 | 338 | 1.7 | 7.0 | 0.00 | 0.00 | 0.00 | 85 | 1010.7 |
| 20260506151501 | 65 | 315 | 3.5 | 7.8 | 0.00 | 0.00 | 0.00 | 87 | 1010.9 |
| 20260506145930 | 63 | 315 | 3.5 | 6.1 | 0.00 | 0.00 | 0.00 | 89 | 1011.4 |
| 20260506145421 | 63 | 270 | 4.3 | 7.0 | 0.00 | 0.00 | 0.00 | 90 | 1011.4 |
| 20260506144910 | 63 | 293 | 3.5 | 7.0 | 0.00 | 0.00 | 0.00 | 90 | 1011.5 |
| 20260506143850 | 63 | 293 | 5.2 | 7.8 | 0.00 | 0.00 | 0.00 | 90 | 1011.6 |
| 20260506143340 | 64 | 293 | 3.5 | 7.0 | 0.00 | 0.00 | 0.00 | 91 | 1011.7 |
| 20260506142837 | 62 | 270 | 4.3 | 7.0 | 0.00 | 0.00 | 0.00 | 90 | 1012.1 |
| 20260506142319 | 62 | 315 | 1.7 | 6.1 | 0.00 | 0.00 | 0.00 | 91 | 1011.9 |
| 20260506141810 | 62 | 315 | 2.6 | 6.1 | 0.00 | 0.00 | 0.00 | 92 | 1012.2 |
| 20260506141300 | 61 | 315 | 1.7 | 6.1 | 0.00 | 0.00 | 0.00 | 92 | 1012.4 |
| 20260506140749 | 61 | 338 | 3.5 | 6.1 | 0.00 | 0.00 | 0.00 | 93 | 1012.3 |
| 20260506140242 | 60 | 45 | 2.6 | 7.0 | 0.00 | 0.00 | 0.00 | 93 | 1012.5 |
| 20260506135729 | 60 | 0 | 3.5 | 7.0 | 0.00 | 0.00 | 0.00 | 93 | 1012.3 |
| 20260506135219 | 60 | 315 | 3.5 | 7.0 | 0.00 | 0.00 | 0.00 | 93 | 1012.5 |
| 20260506134159 | 60 | 23 | 3.5 | 7.0 | 0.00 | 0.00 | 0.00 | 93 | 1012.4 |
| 20260506133648 | 60 | 0 | 0.0 | 5.2 | 0.00 | 0.00 | 0.00 | 93 | 1012.1 |
| 20260506133140 | 59 | 23 | 1.7 | 6.1 | 0.00 | 0.00 | 0.00 | 93 | 1012.2 |
| 20260506132628 | 60 | 315 | 3.5 | 6.1 | 0.00 | 0.00 | 0.00 | 94 | 1012.4 |
| 20260506131607 | 59 | 315 | 4.3 | 7.0 | 0.00 | 0.00 | 0.00 | 94 | 1012.5 |
| 20260506131059 | 59 | 338 | 3.5 | 6.1 | 0.00 | 0.00 | 0.00 | 94 | 1012.2 |
| 20260506130549 | 59 | 315 | 2.6 | 5.2 | 0.00 | 0.00 | 0.00 | 94 | 1012.3 |
| 20260506130038 | 60 | 45 | 0.0 | 6.1 | 0.00 | 0.00 | 0.00 | 94 | 1012.3 |
| 20260506125018 | 59 | 45 | 2.6 | 6.1 | 0.00 | 0.00 | 0.00 | 94 | 1012.4 |
| 20260506124507 | 59 | 23 | 3.5 | 6.1 | 0.00 | 0.00 | 0.00 | 94 | 1012.2 |
| 20260506123957 | 59 | 0 | 4.3 | 6.1 | 0.00 | 0.00 | 0.00 | 94 | 1012.5 |
| 20260506123447 | 59 | 23 | 3.5 | 6.1 | 0.00 | 0.00 | 0.00 | 94 | 1012.3 |
| 20260506122427 | 59 | 45 | 0.0 | 1.7 | 0.00 | 0.00 | 0.00 | 94 | 1012.4 |
| 20260506121917 | 59 | 45 | 0.0 | 1.7 | 0.00 | 0.00 | 0.00 | 93 | 1012.4 |
| 20260506121407 | 59 | 338 | 0.0 | 1.7 | 0.00 | 0.00 | 0.00 | 93 | 1012.4 |
| 20260506120856 | 58 | 338 | 0.0 | 1.7 | 0.00 | 0.00 | 0.00 | 93 | 1012.2 |
| 20260506120346 | 58 | 0 | 0.0 | 0.0 | 0.00 | 0.00 | 0.00 | 93 | 1012.2 |
| 20260506115836 | 57 | 23 | 0.0 | 0.0 | 0.00 | 0.00 | 0.00 | 93 | 1012.3 |
| 20260506115336 | 56 | 45 | 0.0 | 0.0 | 0.00 | 0.00 | 0.00 | 93 | 1012.3 |
| 20260506114306 | 57 | 68 | 0.0 | 0.0 | 0.00 | 0.00 | 0.00 | 92 | 1012.4 |
| 20260506113755 | 57 | 68 | 0.0 | 0.0 | 0.00 | 0.00 | 0.00 | 91 | 1012.3 |
| 20260506112736 | 56 | 113 | 0.0 | 0.0 | 0.00 | 0.00 | 0.00 | 88 | 1012.1 |
| 20260506112225 | 55 | 113 | 0.0 | 0.0 | 0.00 | 0.00 | 0.00 | 86 | 1012.2 |
| 20260506111715 | 55 | 113 | 0.0 | 0.0 | 0.00 | 0.00 | 0.00 | 86 | 1012.2 |
| 20260506111206 | 55 | 113 | 0.0 | 0.0 | 0.00 | 0.00 | 0.00 | 87 | 1012.1 |
| 20260506110145 | 54 | 113 | 0.0 | 0.0 | 0.00 | 0.00 | 0.00 | 87 | 1012.1 |
| 20260506105638 | 55 | 113 | 0.0 | 1.7 | 0.00 | 0.00 | 0.00 | 88 | 1012.2 |
| 20260506105125 | 54 | 113 | 0.9 | 1.7 | 0.00 | 0.00 | 0.00 | 88 | 1012.2 |
| 20260506104621 | 53 | 113 | 0.0 | 1.7 | 0.00 | 0.00 | 0.00 | 91 | 1012.1 |
| 20260506103554 | 55 | 113 | 0.0 | 0.0 | 0.00 | 0.00 | 0.00 | 93 | 1012.1 |
| 20260506102534 | 55 | 68 | 0.0 | 0.0 | 0.00 | 0.00 | 0.00 | 93 | 1011.8 |
| 20260506102024 | 55 | 45 | 0.0 | 0.0 | 0.00 | 0.00 | 0.00 | 93 | 1011.9 |
| 20260506101004 | 55 | 90 | 0.0 | 1.7 | 0.00 | 0.00 | 0.00 | 93 | 1011.8 |
| 20260506100453 | 56 | 68 | 0.0 | 0.0 | 0.00 | 0.00 | 0.00 | 93 | 1011.7 |
| 20260506095944 | 56 | 68 | 0.0 | 0.0 | 0.00 | 0.00 | 0.00 | 93 | 1011.6 |
| 20260506095434 | 56 | 90 | 0.0 | 1.7 | 0.00 | 0.00 | 0.00 | 93 | 1011.6 |
| 20260506094411 | 55 | 68 | 0.0 | 3.5 | 0.00 | 0.00 | 0.00 | 93 | 1011.8 |
| 20260506093903 | 55 | 68 | 0.0 | 1.7 | 0.00 | 0.00 | 0.00 | 93 | 1012.1 |
| 20260506093353 | 55 | 68 | 0.0 | 3.5 | 0.00 | 0.00 | 0.00 | 93 | 1011.9 |
| 20260506092843 | 55 | 68 | 0.9 | 3.5 | 0.00 | 0.00 | 0.00 | 93 | 1011.8 |
| 20260506092332 | 55 | 68 | 1.7 | 3.5 | 0.00 | 0.00 | 0.00 | 93 | 1011.8 |
| 20260506091822 | 55 | 68 | 2.6 | 3.5 | 0.00 | 0.00 | 0.00 | 92 | 1011.8 |
| 20260506091313 | 55 | 68 | 0.0 | 1.7 | 0.00 | 0.00 | 0.00 | 92 | 1011.8 |
| 20260506090252 | 56 | 135 | 0.0 | 0.0 | 0.00 | 0.00 | 0.00 | 91 | 1011.9 |
| 20260506085232 | 56 | 135 | 0.0 | 0.0 | 0.00 | 0.00 | 0.00 | 91 | 1011.8 |
| 20260506084212 | 56 | 135 | 0.0 | 0.0 | 0.00 | 0.00 | 0.00 | 90 | 1011.8 |
| 20260506083701 | 55 | 135 | 0.0 | 0.0 | 0.00 | 0.00 | 0.00 | 90 | 1011.7 |
| 20260506083152 | 55 | 135 | 0.0 | 0.0 | 0.00 | 0.00 | 0.00 | 89 | 1011.8 |
| 20260506082641 | 55 | 135 | 0.0 | 1.7 | 0.00 | 0.00 | 0.00 | 89 | 1011.6 |
| 20260506081621 | 56 | 90 | 0.0 | 0.0 | 0.00 | 0.00 | 0.00 | 89 | 1011.9 |
| 20260506081111 | 56 | 90 | 0.0 | 0.0 | 0.00 | 0.00 | 0.00 | 89 | 1011.9 |
| 20260506080601 | 56 | 90 | 0.0 | 0.0 | 0.00 | 0.00 | 0.00 | 88 | 1011.8 |
| 20260506073500 | 56 | 90 | 0.0 | 0.0 | 0.00 | 0.00 | 0.00 | 86 | 1011.8 |
| 20260506072950 | 56 | 90 | 0.0 | 0.0 | 0.00 | 0.00 | 0.00 | 87 | 1011.9 |
| 20260506072440 | 57 | 90 | 0.0 | 0.0 | 0.00 | 0.00 | 0.00 | 87 | 1012.1 |
| 20260506071930 | 56 | 90 | 0.0 | 0.0 | 0.00 | 0.00 | 0.00 | 87 | 1012.4 |
| 20260506071420 | 57 | 90 | 0.0 | 0.0 | 0.00 | 0.00 | 0.00 | 88 | 1012.3 |
| 20260506070909 | 57 | 90 | 0.0 | 0.0 | 0.00 | 0.00 | 0.00 | 89 | 1012.2 |
| 20260506070402 | 57 | 90 | 0.0 | 0.0 | 0.00 | 0.00 | 0.00 | 89 | 1012.4 |
| 20260506070203 | 57 | 90 | 0.0 | 0.0 | 0.00 | 0.00 | 0.00 | 89 | 1012.3 |
| 20260506062444 | 56 | 135 | 0.0 | 1.7 | 0.00 | 0.00 | 0.00 | 88 | 1012.5 |
| 20260506061933 | 56 | 90 | 0.0 | 1.7 | 0.00 | 0.00 | 0.00 | 89 | 1012.6 |
| 20260506061423 | 57 | 90 | 0.0 | 0.0 | 0.00 | 0.00 | 0.00 | 90 | 1012.4 |
| 20260506060913 | 57 | 135 | 0.0 | 0.0 | 0.00 | 0.00 | 0.00 | 90 | 1012.3 |
| 20260506060403 | 57 | 135 | 0.0 | 0.0 | 0.00 | 0.00 | 0.00 | 90 | 1012.6 |
| 20260506051222 | 56 | 135 | 0.0 | 0.0 | 0.00 | 0.00 | 0.00 | 91 | 1012.6 |
| 20260506050713 | 56 | 135 | 0.0 | 0.0 | 0.00 | 0.00 | 0.00 | 91 | 1012.5 |
| 20260506044632 | 56 | 113 | 0.0 | 0.0 | 0.00 | 0.00 | 0.00 | 91 | 1012.7 |
| 20260506044121 | 56 | 90 | 0.0 | 0.0 | 0.00 | 0.00 | 0.00 | 90 | 1013.1 |
| 20260506043611 | 56 | 90 | 0.0 | 0.0 | 0.00 | 0.00 | 0.00 | 90 | 1013.2 |
| 20260506043111 | 56 | 90 | 0.0 | 0.0 | 0.00 | 0.00 | 0.00 | 90 | 1013.1 |
| 20260506042551 | 56 | 90 | 0.0 | 0.0 | 0.00 | 0.00 | 0.00 | 90 | 1013.1 |
| 20260506042041 | 56 | 90 | 0.0 | 0.0 | 0.00 | 0.00 | 0.00 | 90 | 1013.0 |
| 20260506041540 | 56 | 90 | 0.0 | 0.0 | 0.00 | 0.00 | 0.00 | 90 | 1013.3 |
| 20260506041021 | 56 | 90 | 0.0 | 0.0 | 0.00 | 0.00 | 0.00 | 90 | 1013.4 |
| 20260506040511 | 56 | 90 | 0.0 | 0.0 | 0.00 | 0.00 | 0.00 | 90 | 1013.5 |
| 20260506035451 | 56 | 90 | 0.0 | 1.7 | 0.00 | 0.00 | 0.00 | 90 | 1013.5 |
| 20260506034941 | 56 | 90 | 0.0 | 3.5 | 0.00 | 0.00 | 0.00 | 89 | 1013.4 |
| 20260506034430 | 56 | 90 | 0.0 | 3.5 | 0.00 | 0.00 | 0.00 | 89 | 1013.5 |
| 20260506033920 | 57 | 135 | 0.0 | 0.0 | 0.00 | 0.00 | 0.00 | 88 | 1013.5 |
| 20260506033411 | 57 | 135 | 0.0 | 0.0 | 0.00 | 0.00 | 0.00 | 89 | 1013.5 |
| 20260506032900 | 57 | 135 | 0.0 | 0.0 | 0.00 | 0.00 | 0.00 | 89 | 1013.4 |
| 20260506032350 | 57 | 135 | 0.0 | 0.0 | 0.00 | 0.00 | 0.00 | 89 | 1013.6 |
| 20260506031840 | 58 | 90 | 0.0 | 0.0 | 0.00 | 0.00 | 0.00 | 89 | 1013.5 |
| 20260506031329 | 57 | 90 | 0.0 | 0.0 | 0.00 | 0.00 | 0.00 | 89 | 1013.4 |
| 20260506030820 | 58 | 90 | 0.0 | 0.0 | 0.00 | 0.00 | 0.00 | 89 | 1013.4 |
| 20260506030309 | 58 | 113 | 0.0 | 5.2 | 0.00 | 0.00 | 0.00 | 88 | 1013.9 |
| 20260506025759 | 58 | 113 | 0.0 | 5.2 | 0.00 | 0.00 | 0.00 | 88 | 1013.3 |
| 20260506025249 | 58 | 113 | 1.7 | 5.2 | 0.00 | 0.00 | 0.00 | 89 | 1013.6 |
| 20260506024739 | 59 | 135 | 1.7 | 5.2 | 0.00 | 0.00 | 0.00 | 90 | 1013.5 |
| 20260506024229 | 59 | 135 | 2.6 | 3.5 | 0.00 | 0.00 | 0.00 | 90 | 1013.5 |
| 20260506023719 | 59 | 135 | 1.7 | 5.2 | 0.00 | 0.00 | 0.00 | 90 | 1013.4 |
| 20260506023208 | 59 | 113 | 1.7 | 5.2 | 0.00 | 0.00 | 0.00 | 90 | 1013.4 |
| 20260506022659 | 59 | 158 | 3.5 | 5.2 | 0.00 | 0.00 | 0.00 | 90 | 1013.2 |
| 20260506022149 | 59 | 135 | 1.7 | 3.5 | 0.00 | 0.00 | 0.00 | 90 | 1013.3 |
| 20260506021638 | 60 | 135 | 3.5 | 3.5 | 0.00 | 0.00 | 0.00 | 90 | 1013.4 |
| 20260506021128 | 60 | 135 | 2.6 | 5.2 | 0.00 | 0.00 | 0.00 | 90 | 1013.5 |
| 20260506020618 | 60 | 135 | 2.6 | 5.2 | 0.00 | 0.00 | 0.00 | 89 | 1013.4 |
| 20260506020108 | 60 | 135 | 3.5 | 3.5 | 0.00 | 0.00 | 0.00 | 89 | 1013.3 |
| 20260506015558 | 61 | 135 | 1.7 | 3.5 | 0.00 | 0.00 | 0.00 | 89 | 1013.2 |
| 20260506015048 | 61 | 158 | 2.6 | 5.2 | 0.00 | 0.00 | 0.00 | 90 | 1013.2 |
| 20260506014538 | 61 | 158 | 1.7 | 5.2 | 0.00 | 0.00 | 0.00 | 90 | 1013.5 |
| 20260506014027 | 62 | 158 | 2.6 | 5.2 | 0.00 | 0.00 | 0.00 | 91 | 1013.0 |
| 20260506013525 | 62 | 158 | 3.5 | 6.1 | 0.00 | 0.00 | 0.00 | 91 | 1013.1 |
| 20260506013008 | 62 | 135 | 3.5 | 6.1 | 0.00 | 0.00 | 0.00 | 91 | 1013.5 |
| 20260506012457 | 62 | 180 | 3.5 | 7.0 | 0.00 | 0.00 | 0.00 | 91 | 1013.3 |
| 20260506011437 | 62 | 158 | 2.6 | 3.5 | 0.00 | 0.00 | 0.00 | 91 | 1013.1 |
| 20260506010416 | 63 | 158 | 0.0 | 1.7 | 0.00 | 0.00 | 0.00 | 91 | 1013.2 |
| 20260506005907 | 63 | 180 | 0.0 | 1.7 | 0.00 | 0.00 | 0.00 | 91 | 1013.2 |
| 20260506005356 | 63 | 158 | 0.0 | 3.5 | 0.00 | 0.00 | 0.00 | 91 | 1013.3 |
| 20260506004336 | 64 | 135 | 2.6 | 3.5 | 0.00 | 0.00 | 0.00 | 91 | 1013.2 |
| 20260506002806 | 64 | 158 | 0.0 | 0.0 | 0.00 | 0.00 | 0.00 | 91 | 1013.3 |
| 20260506002257 | 64 | 225 | 0.0 | 0.0 | 0.00 | 0.00 | 0.00 | 91 | 1013.0 |
| 20260506001746 | 64 | 225 | 0.0 | 0.0 | 0.00 | 0.00 | 0.00 | 91 | 1013.1 |
| 20260506001236 | 64 | 158 | 0.0 | 1.7 | 0.00 | 0.00 | 0.00 | 90 | 1012.8 |
| 20260506000726 | 65 | 158 | 0.0 | 1.7 | 0.00 | 0.00 | 0.00 | 90 | 1012.7 |
| 20260506000215 | 65 | 203 | 0.0 | 0.0 | 0.00 | 0.00 | 0.00 | 90 | 1012.8 |
| 20260505235705 | 65 | 203 | 0.0 | 0.0 | 0.00 | 0.00 | 0.00 | 90 | 1012.8 |
| 20260505235155 | 65 | 180 | 0.0 | 1.7 | 0.00 | 0.00 | 0.00 | 90 | 1012.6 |
| 20260505234645 | 65 | 180 | 0.0 | 1.7 | 0.00 | 0.00 | 0.00 | 90 | 1012.6 |
| 20260505234135 | 65 | 158 | 0.0 | 3.5 | 0.00 | 0.00 | 0.00 | 89 | 1012.8 |
| 20260505233625 | 65 | 158 | 0.0 | 3.5 | 0.00 | 0.00 | 0.00 | 89 | 1012.8 |
| 20260505233115 | 66 | 158 | 0.0 | 1.7 | 0.00 | 0.00 | 0.00 | 88 | 1012.7 |
| 20260505232605 | 66 | 203 | 0.9 | 1.7 | 0.00 | 0.00 | 0.00 | 88 | 1012.5 |
| 20260505232054 | 66 | 203 | 0.0 | 1.7 | 0.00 | 0.00 | 0.00 | 87 | 1012.4 |
| 20260505231544 | 66 | 203 | 0.0 | 3.5 | 0.00 | 0.00 | 0.00 | 87 | 1012.5 |
| 20260505231035 | 67 | 225 | 0.0 | 6.1 | 0.00 | 0.00 | 0.00 | 87 | 1012.4 |
| 20260505230524 | 67 | 225 | 1.7 | 6.1 | 0.00 | 0.00 | 0.00 | 86 | 1012.2 |
| 20260505230014 | 67 | 180 | 0.9 | 3.5 | 0.00 | 0.00 | 0.00 | 86 | 1011.8 |
| 20260505225504 | 67 | 225 | 0.0 | 5.2 | 0.00 | 0.00 | 0.00 | 86 | 1011.9 |
| 20260505224953 | 67 | 203 | 0.0 | 5.2 | 0.00 | 0.00 | 0.00 | 85 | 1011.8 |
| 20260505224443 | 67 | 248 | 0.0 | 7.0 | 0.00 | 0.00 | 0.00 | 85 | 1011.9 |
| 20260505222913 | 68 | 225 | 2.6 | 6.1 | 0.00 | 0.00 | 0.00 | 84 | 1012.1 |
| 20260505222403 | 68 | 248 | 1.7 | 9.6 | 0.00 | 0.00 | 0.00 | 83 | 1012.2 |
| 20260505221853 | 68 | 225 | 0.9 | 9.6 | 0.00 | 0.00 | 0.00 | 82 | 1011.9 |
| 20260505221343 | 69 | 203 | 1.7 | 7.0 | 0.00 | 0.00 | 0.00 | 81 | 1011.7 |
| 20260505220833 | 69 | 225 | 1.7 | 7.0 | 0.00 | 0.00 | 0.00 | 80 | 1011.5 |
| 20260505220323 | 69 | 203 | 3.5 | 9.6 | 0.00 | 0.00 | 0.00 | 79 | 1011.7 |
| 20260505215812 | 70 | 225 | 3.5 | 9.6 | 0.00 | 0.00 | 0.00 | 77 | 1011.4 |
| 20260505215308 | 70 | 203 | 3.5 | 6.1 | 0.00 | 0.00 | 0.00 | 76 | 1011.4 |
| 20260505213223 | 71 | 248 | 2.6 | 11.3 | 0.00 | 0.00 | 0.00 | 72 | 1011.6 |
| 20260505212712 | 71 | 248 | 7.0 | 11.3 | 0.00 | 0.00 | 0.00 | 71 | 1011.3 |
| 20260505212202 | 71 | 225 | 5.2 | 9.6 | 0.00 | 0.00 | 0.00 | 71 | 1011.4 |
| 20260505211142 | 72 | 248 | 2.6 | 9.6 | 0.00 | 0.00 | 0.00 | 71 | 1011.3 |
| 20260505210631 | 72 | 225 | 3.5 | 12.2 | 0.00 | 0.00 | 0.00 | 71 | 1011.0 |
| 20260505210122 | 72 | 248 | 3.5 | 13.0 | 0.00 | 0.00 | 0.00 | 71 | 1011.2 |
| 20260505205611 | 73 | 248 | 4.3 | 13.0 | 0.00 | 0.00 | 0.00 | 70 | 1011.0 |
| 20260505205101 | 73 | 225 | 3.5 | 11.3 | 0.00 | 0.00 | 0.00 | 70 | 1010.9 |
| 20260505204551 | 74 | 203 | 1.7 | 11.3 | 0.00 | 0.00 | 0.00 | 69 | 1010.8 |
| 20260505204041 | 74 | 225 | 5.2 | 9.6 | 0.00 | 0.00 | 0.00 | 68 | 1010.7 |
| 20260505203531 | 74 | 248 | 7.0 | 11.3 | 0.00 | 0.00 | 0.00 | 68 | 1010.8 |
| 20260505203021 | 74 | 180 | 6.1 | 11.3 | 0.00 | 0.00 | 0.00 | 68 | 1010.7 |
| 20260505202510 | 75 | 225 | 6.1 | 11.3 | 0.00 | 0.00 | 0.00 | 67 | 1010.6 |
| 20260505202001 | 75 | 248 | 4.3 | 11.3 | 0.00 | 0.00 | 0.00 | 68 | 1010.7 |
| 20260505201451 | 76 | 248 | 3.5 | 11.3 | 0.00 | 0.00 | 0.00 | 67 | 1010.4 |
| 20260505200941 | 76 | 248 | 5.2 | 11.3 | 0.00 | 0.00 | 0.00 | 67 | 1010.2 |
| 20260505200430 | 76 | 203 | 7.0 | 11.3 | 0.00 | 0.00 | 0.00 | 68 | 1010.4 |
| 20260505195920 | 76 | 225 | 5.2 | 11.3 | 0.00 | 0.00 | 0.00 | 67 | 1010.4 |
| 20260505195410 | 76 | 248 | 4.3 | 11.3 | 0.00 | 0.00 | 0.00 | 67 | 1010.5 |
| 20260505194354 | 77 | 248 | 3.5 | 9.6 | 0.00 | 0.00 | 0.00 | 66 | 1010.4 |
| 20260505193840 | 77 | 225 | 3.5 | 9.6 | 0.00 | 0.00 | 0.00 | 66 | 1010.0 |
| 20260505193329 | 77 | 248 | 3.5 | 13.0 | 0.00 | 0.00 | 0.00 | 66 | 1010.1 |
| 20260505192311 | 78 | 203 | 3.5 | 9.6 | 0.00 | 0.00 | 0.00 | 65 | 1010.0 |
| 20260505191759 | 78 | 270 | 4.3 | 9.6 | 0.00 | 0.00 | 0.00 | 66 | 1010.4 |
| 20260505191249 | 78 | 248 | 3.5 | 9.6 | 0.00 | 0.00 | 0.00 | 65 | 1010.1 |
| 20260505190740 | 78 | 203 | 3.5 | 9.6 | 0.00 | 0.00 | 0.00 | 66 | 1010.1 |
| 20260505190230 | 77 | 225 | 5.2 | 9.6 | 0.00 | 0.00 | 0.00 | 66 | 1009.9 |
| 20260505185719 | 78 | 203 | 4.3 | 9.6 | 0.00 | 0.00 | 0.00 | 66 | 1010.2 |
| 20260505185209 | 78 | 248 | 4.3 | 9.6 | 0.00 | 0.00 | 0.00 | 66 | 1010.2 |
| 20260505184659 | 78 | 248 | 3.5 | 9.6 | 0.00 | 0.00 | 0.00 | 65 | 1010.5 |
| 20260505184149 | 78 | 248 | 5.2 | 11.3 | 0.00 | 0.00 | 0.00 | 65 | 1010.4 |
| 20260505183638 | 78 | 203 | 5.2 | 11.3 | 0.00 | 0.00 | 0.00 | 64 | 1010.2 |
| 20260505183128 | 78 | 248 | 3.5 | 7.8 | 0.00 | 0.00 | 0.00 | 63 | 1010.5 |
| 20260505182108 | 79 | 180 | 0.9 | 9.6 | 0.00 | 0.00 | 0.00 | 61 | 1010.5 |
| 20260505181053 | 78 | 180 | 3.5 | 9.6 | 0.00 | 0.00 | 0.00 | 60 | 1010.6 |